Погода в Большой Дороге

Россия / Тамбовская область     53°24′10″N   40°40′56″E
темп.,
°C
ветер,
м/с
пор.,
м/с
влажн.,
%
обл.,
%
осадки,
мм/ч
давл.,
гПа
погр.,
м
21 января, пт
пт2100:00−12ю71787100 0.0 1012372
03:00−10ю71693100 0.1 1010430
06:00−9ю71694100 0.4 1008456
09:00−8ююв81794100 1.4 1007539
12:00−7ююв91794100 1.4 1005684
15:00−6ююв81694100 2.5 1003688
18:00−5ююв71595100 0.6 1002543
21:00−3юз51095100 2.0 1002693
22 января, сб
сб2200:00−8ю5129473 0.1 1004275
03:00−9ю6149498 0.1 1005342
06:00−8ю61395100 0.1 1006351
09:00−9ю6129499 0.1 1008327
12:00−8ююв5109487 0.1 1010323
15:00−8ююв599494 0.1 1011311
18:00−9ююв51095100 0.1 1014261
21:00−10ююв3897100 0.1 1015151
23 января, вс
вс2300:00−11юв2497100 0.0 101747
03:00−10юв3596100 0.1 1019102
06:00−14юв229969 0.1 102129
09:00−17юв22100100 0.1 102535
12:00−12юв129670 0.0 102755
15:00−12св229678 0.0 102832
18:00−13св349798 0.0 103054
21:00−12св379881 0.0 103295
24 января, пн
пн2400:00−12ссв499656 0.0 1032128
03:00−12ссв51198100 0.0 1033168
06:00−10св41197100 0.0 1033200
09:00−10св4996100 0.1 1034185
12:00−7св4895100 0.0 1034231
15:00−6всв4993100 0.0 1033276
18:00−8св37956 0.0 1034126
21:00−14всв3597100 0.0 103458
25 января, вт
вт2500:00−16в2497100 0.0 103438
03:00−19в229946 0.0 103419
06:00−18вюв33995 0.0 103331
09:00−17юв34975 0.0 103252
12:00−12ююв259161 0.0 1030111
15:00−12ююв229429 0.0 102913
18:00−17ююв229850 0.0 102814
21:00−16ююв379752 0.0 102781